Tracking 17856 objects as of 27-September-2016
HD Live streaming from Space Station
objects crossing your sky now

COSMOS 2315

Track COSMOS 2315 now!
10-day predictions
COSMOS 2315 is classified as:


NORAD ID: 23603
Int'l Code: 1995-032A
Perigee: 973.9 km
Apogee: 1,019.3 km
Inclination: 82.9 °
Period: 104.9 minutes
Semi major axis: 7367 km
RCS: 2.3448 m2 (large)
Launch date: July 5, 1995
Source: Commonwealth of Independent States (former USSR) (CIS)
Launch site: PLESETSK MISSILE AND SPACE COMPLEX (PKMTR)
Your satellite tracking list
Your tracking list is empty





NASA's NSSDC Master Catalog

Two Line Element Set (TLE):
1 23603U 95032A   16270.36405269  .00000019  00000-0  48507-5 0  9993
2 23603  82.9081   6.9507 0030851   1.5128  62.3613 13.72823171 63707
Source of the keplerian elements: AFSPC

N2YO: 483